Theta_e
347 347 348 348 348 347 347 348 348 349 348 349 348 348 348 349 348 348 348 349 351 350 351 351 352 352 352 352 352 353 353 354 355 355 355 354 355 354 354 352 351 351 350 349 350 349 348 346 346 345 342 339 338 338 337 337 336 335 334 332 331 331 329 327 325 326 327 329 330 331 333 333 331 333 333 334 335 338 344 340 340 340 339 337 335
346 347 348 348 347 347 347 348 348 348 348 348 348 348 348 349 349 349 347 348 351 351 351 352 352 352 352 351 352 352 353 353 354 355 354 354 354 355 354 353 351 351 350 349 349 350 349 347 347 347 345 342 340 338 338 337 337 336 335 334 332 331 331 329 327 325 326 326 330 332 332 333 332 333 333 333 334 336 336 338 340 340 339 337 336
347 347 347 347 347 347 347 348 348 348 348 348 348 348 349 349 350 349 349 348 350 352 352 352 352 352 352 352 351 352 352 352 353 354 354 353 353 354 354 353 352 351 350 349 349 349 349 348 348 348 347 343 342 341 340 337 337 336 336 336 334 333 332 332 329 327 327 328 328 330 332 332 332 332 334 335 336 335 335 336 338 339 339 338 337
346 347 347 347 347 347 347 348 348 348 348 348 348 349 349 349 351 350 350 350 349 351 352 353 353 352 352 351 351 352 352 353 353 353 353 353 353 353 353 353 353 352 352 351 350 349 349 348 348 348 347 345 344 343 342 339 337 337 336 335 335 335 334 333 332 330 328 328 328 330 332 331 332 333 333 335 334 334 334 336 337 337 337 338 337
346 346 347 347 347 347 347 347 347 347 348 348 349 349 350 350 350 350 351 351 351 350 351 352 352 352 352 352 351 351 352 352 352 353 353 354 353 353 353 353 353 353 353 352 353 350 349 349 349 349 347 345 345 344 343 340 339 338 337 336 335 336 336 335 333 331 329 328 329 329 331 331 332 331 332 332 332 332 332 333 334 335 335 337 338
347 347 347 347 347 347 347 347 347 348 348 349 349 350 350 350 350 351 351 351 351 352 351 351 352 352 352 353 352 352 352 352 352 352 353 353 353 353 353 352 353 353 353 353 352 352 351 350 350 349 348 346 346 346 344 342 341 338 337 337 336 335 335 334 334 333 331 330 330 330 327 331 330 331 331 333 331 330 331 332 332 332 332 333 335
347 347 347 347 347 347 348 348 348 348 349 349 350 350 350 351 351 350 351 350 351 351 352 351 352 352 352 352 352 352 352 352 352 352 352 352 352 352 352 352 352 352 352 353 353 352 352 352 351 350 349 348 347 346 345 343 342 340 339 338 337 335 335 334 334 333 332 331 331 330 330 330 331 331 330 332 332 332 330 329 329 332 331 331 332
347 347 347 347 347 347 348 349 349 350 350 350 350 350 351 351 351 351 351 350 349 350 351 352 353 353 353 353 353 353 352 352 352 352 352 352 352 352 352 352 352 352 352 352 353 353 353 353 352 352 351 350 349 348 346 345 343 341 341 340 338 336 335 335 333 333 333 332 332 332 330 330 327 329 329 328 327 329 331 330 328 329 330 331 331
347 347 347 347 347 348 349 349 350 350 351 350 350 350 351 351 351 351 351 350 350 350 350 351 352 353 353 353 353 354 353 352 352 352 352 352 352 352 352 352 352 351 351 352 352 352 353 353 353 353 353 349 342 342 343 341 345 342 342 340 339 337 336 335 334 333 332 332 332 332 331 329 329 329 329 328 328 330 330 331 330 331 331 330 331
348 348 347 348 349 349 349 350 350 350 350 350 350 350 350 351 351 350 350 350 350 350 349 349 349 350 351 352 352 353 353 354 346 335 338 352 352 353 352 352 352 352 351 351 351 352 352 353 354 348 341 339 337 336 335 334 335 343 345 341 340 338 337 336 335 334 333 332 332 332 331 331 331 330 331 332 332 332 328 329 329 331 326 329 330
348 348 348 349 349 350 350 349 350 349 350 350 350 350 350 350 350 350 350 350 350 349 350 348 348 348 348 349 350 352 352 352 337 331 331 334 349 353 352 352 352 352 352 351 351 351 352 353 353 352 344 339 341 334 334 333 332 333 335 338 338 341 339 337 336 335 334 333 333 332 332 331 332 333 332 333 333 332 331 330 329 329 328 326 326
349 349 349 349 350 350 350 350 350 350 350 350 350 350 350 350 349 349 349 349 349 350 349 348 348 348 348 348 348 350 351 338 332 330 330 329 333 352 353 353 352 352 352 352 352 352 352 352 353 353 353 353 351 348 338 331 329 330 330 331 333 333 335 340 339 337 335 334 333 333 333 332 333 334 333 333 333 333 332 331 329 328 328 327 327
350 350 350 350 350 350 350 350 350 350 350 350 350 350 350 350 349 349 349 350 350 349 348 348 348 348 348 347 347 349 350 337 331 328 328 328 328 335 352 353 352 352 352 352 352 353 352 352 352 353 354 344 348 351 351 347 331 327 328 330 330 330 330 330 333 342 341 337 335 335 335 335 334 335 336 335 336 333 332 330 330 329 329 328 329
351 351 351 351 351 351 351 350 350 350 351 351 351 350 350 349 350 350 350 350 349 348 348 348 348 348 348 347 347 348 349 337 330 326 326 326 326 329 347 351 352 352 352 352 353 353 353 352 352 352 353 353 352 351 351 351 350 345 338 337 339 338 329 327 327 328 338 342 340 337 339 338 336 337 339 338 335 334 333 332 332 331 330 330 332
351 351 351 352 352 352 351 351 351 351 351 351 351 350 350 350 350 350 350 349 348 348 348 348 348 349 348 349 348 348 349 335 328 325 323 322 324 326 343 348 350 351 352 353 353 353 353 353 353 352 352 352 353 351 351 351 350 350 348 345 343 343 343 342 339 337 336 338 341 342 342 342 341 340 340 340 338 338 337 335 335 334 334 334 333
351 351 352 352 353 353 353 352 351 351 351 351 351 350 351 350 350 351 350 350 350 349 349 349 348 348 349 349 348 347 349 333 327 324 322 321 323 334 341 345 348 350 351 352 352 353 353 353 353 352 353 352 344 333 339 351 351 349 349 349 348 348 346 337 335 337 341 342 341 342 343 344 338 344 343 341 340 339 340 340 337 334 332 331 329
351 352 353 353 354 354 354 353 352 352 352 351 350 351 350 351 351 352 350 350 349 348 348 348 348 348 348 348 348 348 349 338 326 322 321 320 322 337 341 344 347 348 350 351 352 353 353 353 353 353 353 352 341 331 329 334 350 350 349 349 349 349 349 350 334 329 329 329 329 331 331 331 331 329 327 329 336 338 337 335 333 334 331 329 330
351 353 353 354 355 355 355 354 353 353 352 351 351 351 352 352 352 352 350 349 349 349 349 348 348 349 348 348 348 348 348 341 325 320 319 319 325 340 342 344 345 347 348 350 352 352 353 345 353 353 352 353 336 329 328 332 346 349 349 348 348 348 349 351 350 343 327 326 327 328 328 329 328 328 328 327 325 329 337 333 336 335 332 331 329
350 351 354 356 356 356 356 356 355 354 353 353 353 352 352 352 353 353 352 351 350 350 350 349 348 349 349 348 344 346 349 342 324 321 318 317 325 341 344 345 345 346 347 348 350 351 352 349 343 341 346 345 332 328 325 330 346 348 349 349 348 347 349 351 350 350 347 340 337 336 336 331 336 335 336 328 328 334 335 338 339 336 333 333 332
351 351 353 355 357 357 357 357 356 355 354 354 354 354 354 353 352 352 352 352 351 350 350 349 348 348 349 349 350 349 349 350 342 319 317 316 318 341 345 346 345 346 347 348 349 349 351 352 346 329 325 325 325 323 321 320 343 349 350 348 348 347 352 352 351 351 350 349 347 343 341 341 341 340 339 339 338 337 334 336 338 338 336 335 334
348 350 351 352 354 356 357 357 357 357 357 356 356 355 355 353 353 352 351 352 351 350 350 349 349 348 349 349 350 350 351 351 348 319 315 315 315 322 345 347 348 348 348 347 348 349 349 350 352 336 326 322 320 319 318 317 322 345 350 348 349 348 345 348 348 346 347 347 346 346 346 344 343 342 342 341 340 340 338 335 337 338 338 336 335
355 349 349 350 352 354 355 357 358 358 358 357 355 354 355 354 353 352 352 351 350 349 349 348 348 348 348 349 349 349 351 343 353 322 316 314 314 313 338 348 348 349 349 349 349 350 350 351 352 341 328 323 319 316 314 315 316 330 342 325 331 331 340 344 345 345 345 345 345 344 345 345 345 345 343 342 342 341 341 340 338 337 339 339 338
354 351 348 348 350 352 353 355 356 358 357 357 356 354 355 354 353 352 351 350 349 349 349 348 348 347 347 347 348 349 350 349 333 340 317 313 313 312 318 334 332 347 349 349 349 350 352 353 351 338 326 319 314 312 312 312 313 322 316 320 327 328 331 340 341 342 342 343 343 342 342 343 343 343 344 344 344 344 343 342 342 340 339 339 341
351 348 347 347 349 351 352 354 355 356 357 357 356 355 354 354 353 353 352 350 349 348 348 348 347 347 346 346 347 348 349 350 337 328 331 314 313 312 312 316 324 342 349 350 352 352 353 354 344 315 311 307 308 309 310 312 324 316 312 316 321 326 337 339 337 339 339 339 338 338 338 340 342 343 343 345 345 346 345 344 343 343 342 341 340
350 351 345 346 348 350 352 353 353 355 356 356 355 354 353 353 352 352 351 350 350 348 348 348 348 348 347 347 347 348 350 351 351 336 324 319 313 312 312 313 314 317 337 348 350 352 326 308 306 309 311 310 311 313 315 314 310 308 312 314 323 334 335 337 338 338 337 337 337 338 339 340 342 343 345 346 346 346 345 344 344 344 343 343 342
351 351 348 344 347 350 351 352 353 354 355 356 356 355 354 353 353 352 352 351 351 349 349 348 348 348 348 348 348 349 350 351 352 340 334 328 320 312 312 313 315 315 319 329 322 317 313 312 313 315 318 323 330 333 334 335 325 319 312 315 327 332 335 336 337 336 336 338 338 339 340 342 343 344 344 344 343 343 343 342 342 341 341 340 339
352 350 349 344 345 349 351 352 353 354 354 355 355 356 355 354 353 352 353 352 351 350 350 349 348 348 348 349 350 350 350 350 345 336 333 335 335 330 320 320 316 316 321 326 323 328 330 330 331 321 319 317 318 317 318 322 326 329 329 324 328 331 333 335 336 337 337 339 339 340 342 343 344 342 341 341 341 342 343 341 341 341 341 340 338
350 346 347 346 348 350 351 361 357 354 353 355 354 354 355 356 354 353 353 353 352 351 352 351 349 350 350 350 351 350 349 342 339 340 334 332 330 328 328 330 328 326 328 330 331 333 333 326 325 331 330 330 331 331 332 331 331 330 332 331 329 330 331 328 330 336 338 339 340 341 340 341 340 341 341 341 341 341 342 340 340 340 340 339 336
349 345 346 349 349 351 353 358 355 344 329 321 313 310 313 321 345 344 329 325 343 356 355 353 353 353 354 353 352 349 342 342 340 318 323 319 329 329 330 330 329 328 320 316 331 329 328 328 329 329 329 328 327 327 326 326 326 325 326 327 328 329 331 331 331 331 333 333 334 335 336 337 337 339 338 339 339 340 342 340 340 339 339 338 335
345 345 346 344 349 351 355 354 347 341 335 327 323 319 313 303 306 325 325 320 311 308 327 353 356 353 339 320 324 345 350 341 304 300 298 298 298 299 300 303 309 317 311 314 326 326 325 325 325 325 323 323 322 322 322 322 322 323 323 321 323 325 326 327 328 328 329 329 330 330 330 331 332 333 334 335 336 338 339 333 338 339 337 336 335
343 344 345 345 343 352 354 352 344 339 334 330 329 327 325 318 302 300 306 307 301 298 298 304 318 330 341 328 313 303 305 300 297 296 296 296 297 297 297 297 298 301 309 326 325 323 322 322 320 319 318 318 318 318 320 320 321 321 323 324 325 325 325 326 327 327 326 327 327 327 328 328 328 328 329 329 331 333 336 336 336 335 335 334 334
341 341 343 345 347 349 352 350 343 338 335 333 332 330 328 325 322 306 300 302 301 298 298 299 300 304 310 315 316 313 302 297 296 296 296 297 297 296 296 297 298 300 304 312 323 320 317 318 316 316 317 317 317 318 318 321 322 323 325 325 325 326 326 326 327 327 327 327 327 327 327 328 328 328 329 328 328 329 330 331 332 333 333 333 332
343 342 341 342 344 352 352 347 343 339 336 334 332 332 330 328 325 323 318 304 302 300 299 298 298 300 301 301 304 305 302 298 297 297 297 296 296 296 296 296 298 303 310 319 321 316 315 314 313 313 314 315 317 319 322 324 325 325 325 325 325 326 327 328 326 328 327 327 327 327 327 327 327 327 326 327 327 327 328 328 329 329 329 329 329
343 344 342 340 340 343 348 347 343 340 338 336 334 332 331 329 327 325 325 325 324 316 308 303 300 300 298 299 299 298 297 297 297 297 296 297 297 299 301 304 297 299 309 319 317 315 313 315 316 317 319 321 321 322 323 324 325 326 326 326 326 327 327 328 327 326 326 326 327 326 326 327 327 327 327 328 329 329 329 328 329 329 328 329 329
339 345 349 344 337 337 340 344 342 339 337 335 333 331 329 330 330 328 326 325 324 324 323 323 309 303 310 304 296 296 295 295 296 296 296 296 298 298 305 322 323 321 319 318 317 315 318 319 319 321 322 322 323 324 324 325 325 326 326 325 326 325 325 325 325 324 324 323 323 323 323 323 325 325 325 325 326 326 326 327 328 329 329 329 329
337 338 338 340 339 338 337 337 337 336 334 332 333 333 334 332 329 328 325 327 326 325 324 323 320 308 300 295 294 295 294 294 294 295 294 296 297 304 322 319 319 318 316 314 315 316 318 321 322 324 324 325 325 325 326 326 326 326 326 325 324 324 323 322 320 320 320 321 320 320 318 320 320 319 320 320 321 321 323 324 325 326 327 328 328
333 334 335 336 336 336 337 337 336 335 334 334 334 333 332 332 331 330 329 328 327 327 327 327 327 327 321 319 306 297 294 294 294 294 294 294 294 313 321 319 318 316 318 315 316 317 318 321 323 325 326 326 326 326 326 326 326 326 322 324 323 322 321 320 320 320 320 319 319 319 319 319 319 319 318 317 317 319 320 321 320 320 320 319 318
329 330 331 333 335 334 335 336 336 334 336 335 334 332 331 330 330 330 329 328 328 327 326 325 324 324 323 321 325 317 309 303 305 307 306 306 311 319 319 319 318 317 316 316 317 316 317 318 323 326 327 326 326 326 326 326 325 325 324 323 321 320 316 318 319 318 318 318 318 318 317 317 317 318 317 317 317 317 317 317 317 317 316 316 316
326 323 322 324 327 332 333 334 334 334 333 332 332 331 330 329 329 329 328 327 325 324 322 321 319 319 319 319 321 320 319 319 319 318 319 319 319 317 316 317 316 315 316 316 318 317 317 319 323 326 327 327 326 326 326 325 325 323 322 319 317 316 315 315 315 315 315 315 315 315 315 315 315 316 316 316 315 315 315 316 316 317 316 315 316
325 325 324 323 326 326 328 331 331 331 332 330 330 330 329 329 328 327 326 324 322 321 319 318 316 315 316 319 319 322 322 322 322 322 322 322 323 323 323 322 321 321 321 322 321 320 319 321 322 325 326 327 327 326 326 325 323 321 319 315 313 313 314 313 314 314 314 315 315 315 315 315 315 315 315 315 314 314 314 314 314 315 315 315 315
324 325 326 322 323 324 327 326 325 326 326 327 327 328 328 328 327 326 324 322 321 320 318 317 315 314 311 308 308 314 323 323 324 323 323 324 324 325 325 324 324 324 324 323 323 323 322 323 323 324 325 326 326 325 325 324 322 319 316 314 312 313 313 313 313 314 314 314 314 314 315 315 315 314 313 314 312 313 314 314 314 315 315 315 316
322 321 322 321 321 322 321 321 321 322 322 323 322 322 322 322 321 321 321 319 319 317 316 315 315 314 308 304 303 305 317 319 320 319 320 320 320 321 322 321 320 318 317 316 316 317 317 318 319 321 322 324 324 325 324 323 321 319 316 314 313 313 313 313 313 313 314 314 314 314 314 314 315 315 315 311 314 314 314 314 314 315 315 315 315
322 321 320 321 320 319 318 318 318 317 317 317 317 319 318 317 316 317 316 316 315 315 314 313 313 313 311 306 307 307 313 315 316 315 315 315 315 316 316 315 314 313 312 312 312 312 312 312 313 313 314 316 317 318 321 322 321 319 317 315 314 313 313 313 313 314 314 313 313 314 313 313 314 314 314 314 314 314 314 314 314 315 315 316 315
319 319 319 318 318 317 317 316 316 316 316 317 316 315 314 313 312 312 312 312 312 312 311 311 311 310 309 308 307 309 311 311 311 311 312 312 312 313 312 311 310 309 309 308 309 308 308 309 309 309 310 311 312 313 316 316 316 317 316 316 315 315 314 313 314 314 314 313 313 313 312 313 313 313 313 314 313 313 313 313 313 313 314 315 316
317 316 316 315 315 314 314 314 314 313 314 313 311 311 312 310 310 310 310 309 310 310 309 309 309 309 308 308 308 308 308 308 309 309 309 309 310 309 309 308 307 305 305 305 305 305 305 305 305 305 306 307 308 309 311 311 310 310 311 312 312 312 312 313 314 316 314 312 311 311 311 311 312 313 313 312 312 311 312 311 312 313 311 311 310
316 315 315 314 313 313 313 312 313 311 310 309 308 308 308 308 309 309 308 308 308 307 307 307 307 307 307 306 306 307 306 306 306 307 307 307 307 306 305 304 304 303 302 302 302 303 303 303 303 303 303 303 305 305 306 307 307 307 306 306 306 305 305 304 304 307 314 314 312 310 309 311 311 312 319 311 310 311 310 310 310 310 309 308 308
315 314 314 314 313 312 312 311 310 309 309 308 308 307 306 306 307 307 308 307 306 306 305 305 305 304 304 304 304 304 305 305 304 304 304 305 305 305 304 303 302 301 301 300 300 300 301 301 300 301 301 301 302 303 303 304 304 304 304 303 303 301 300 299 299 301 308 315 314 311 310 311 312 309 311 310 308 309 308 308 310 309 309 308 307
314 313 313 313 312 311 311 310 309 310 307 306 305 305 304 304 303 303 303 303 303 303 303 303 303 303 304 303 303 303 303 303 303 303 303 303 303 303 303 302 301 300 300 299 299 299 299 299 299 299 299 299 299 299 300 301 300 300 300 300 299 298 297 296 296 299 306 310 314 314 312 312 310 312 311 311 310 309 310 309 309 308 309 309 308
311 311 310 310 310 310 309 308 307 305 304 303 303 302 301 301 301 300 301 300 300 301 300 301 301 302 302 302 302 302 302 302 301 301 301 302 302 302 302 302 301 300 299 298 297 297 296 296 297 297 297 297 297 297 298 299 298 297 297 297 296 294 292 293 295 299 297 301 310 314 313 313 312 312 311 311 312 309 309 308 308 309 308 309 308
309 309 308 308 307 307 307 305 304 303 303 302 301 301 301 300 300 300 299 299 299 299 299 299 299 300 300 300 300 300 300 299 299 300 300 300 300 301 301 301 300 300 299 297 297 296 296 295 295 295 296 296 295 295 296 297 297 296 295 294 292 291 291 292 295 297 298 301 304 311 316 315 314 314 313 313 312 312 311 311 309 309 308 308 308
308 307 306 305 304 304 303 302 301 301 301 301 301 301 301 300 300 300 300 299 298 298 297 297 297 298 298 298 299 298 298 297 297 297 297 298 298 298 299 299 299 298 298 297 297 296 295 295 295 295 294 294 294 294 294 295 295 295 293 292 290 290 291 291 293 292 293 298 304 310 315 317 317 317 316 315 312 311 312 313 311 309 309 308 308
Wind_Speed
15 14 14 14 14 14 14 13 13 12 11 11 11 11 10 9 9 9 5 7 8 8 9 10 10 10 10 9 10 9 9 9 8 7 8 8 8 8 6 7 8 8 6 7 6 6 7 8 8 7 5 5 6 6 5 5 4 5 4 5 6 4 5 6 7 10 5 4 4 5 3 3 3 6 8 7 6 7 9 9 8 8 8 8 8
16 15 13 13 15 14 14 13 13 12 13 12 12 12 10 10 9 6 8 8 8 10 11 10 9 10 10 10 10 10 9 10 8 8 9 9 9 7 7 8 8 8 6 8 7 7 7 7 8 7 6 7 6 6 6 5 5 5 5 5 6 6 6 6 8 6 12 2 4 3 4 3 6 3 8 8 8 5 8 8 7 8 8 8 8
16 15 14 14 15 14 14 13 13 14 14 13 13 12 11 10 8 9 9 8 8 9 10 10 10 9 10 10 10 10 10 10 9 9 9 10 10 9 8 8 9 9 9 10 9 7 7 8 9 7 5 6 7 7 5 6 5 6 6 5 6 6 6 7 6 8 10 9 4 4 4 3 7 6 6 7 7 6 8 8 9 7 7 8 8
16 15 14 15 15 15 14 13 14 14 14 13 14 13 12 11 9 10 10 8 9 9 9 9 9 9 10 11 10 11 11 10 10 10 11 10 10 10 9 9 9 9 10 10 9 8 9 9 10 8 6 7 8 8 7 5 6 6 6 6 7 7 6 6 8 9 7 8 5 6 4 4 6 5 3 3 5 5 7 6 4 6 7 7 8
15 15 15 16 15 15 15 14 14 14 14 12 14 14 13 11 10 12 11 10 10 9 8 8 9 9 11 12 12 11 12 11 11 11 10 10 10 10 9 9 10 10 10 10 8 9 9 10 10 7 6 8 9 8 8 8 8 7 8 7 8 7 6 7 9 8 8 10 8 4 3 4 4 3 3 4 5 5 4 6 7 7 7 7 6
15 15 15 15 15 16 15 14 15 15 15 14 15 14 13 12 12 11 11 12 11 10 10 9 9 11 12 12 12 12 11 11 11 11 11 10 9 10 10 10 10 10 10 10 9 9 10 10 10 8 8 10 11 9 8 9 8 7 8 8 8 7 8 8 7 8 8 10 8 8 3 6 4 5 5 6 6 6 6 6 5 6 6 7 8
15 15 15 15 14 15 15 15 14 14 14 14 13 12 13 13 13 13 12 12 12 11 11 11 11 11 12 12 12 12 11 11 11 11 11 10 10 11 11 11 10 10 9 10 10 10 10 10 10 10 11 11 11 10 9 8 8 9 10 10 8 8 9 8 8 8 9 9 9 8 8 5 5 8 4 5 5 6 7 7 9 8 6 9 10
15 15 15 15 15 16 15 14 14 14 13 13 13 13 13 12 13 12 11 12 12 12 12 12 12 11 12 12 12 11 10 10 11 11 10 11 11 11 11 11 11 10 10 10 9 10 10 11 11 11 12 11 11 10 8 9 7 8 9 8 8 8 9 9 7 8 8 9 10 10 7 7 3 4 1 2 3 6 8 8 11 10 9 8 10
16 16 15 15 15 15 14 13 13 13 13 13 13 13 13 12 12 11 11 11 11 12 12 12 12 12 12 12 12 11 10 11 10 10 11 12 11 12 12 12 11 11 11 10 10 10 10 11 11 11 12 14 15 13 12 10 8 9 9 8 9 9 9 8 8 7 8 9 10 8 8 7 6 5 6 7 10 13 5 7 10 10 7 6 9
16 15 15 15 14 14 14 13 12 13 13 14 14 13 12 12 12 12 12 12 12 11 11 12 12 13 13 12 11 10 11 10 13 17 15 12 11 11 10 11 11 11 10 10 10 11 11 11 11 15 15 16 16 16 16 15 15 13 10 8 10 10 10 10 9 8 8 9 10 10 10 11 9 8 10 11 9 7 6 7 10 11 4 7 8
15 15 15 15 14 13 12 12 12 13 14 13 12 13 13 12 12 12 12 12 13 12 12 13 13 13 14 13 13 11 11 11 17 16 17 19 13 11 11 11 10 10 11 11 11 11 11 11 11 12 13 13 14 17 16 17 17 18 19 17 14 12 11 11 11 9 9 10 10 9 10 12 11 10 11 11 8 10 11 8 9 6 8 10 13
14 14 14 13 13 13 13 13 13 13 13 13 13 13 12 13 13 13 13 13 13 12 12 13 13 13 12 13 13 13 12 15 17 17 17 18 17 13 11 10 10 10 10 11 11 10 11 11 10 9 10 12 11 11 14 17 18 18 20 20 20 19 18 15 12 10 10 11 11 11 10 12 13 10 10 9 12 10 9 9 9 10 11 11 11
14 14 14 14 14 13 13 13 14 13 14 14 13 13 13 14 14 14 14 14 11 12 14 13 14 13 13 14 14 13 12 15 17 17 17 18 19 16 11 10 10 10 10 11 11 11 10 10 10 9 10 14 12 11 11 11 15 19 20 21 22 21 20 21 20 16 10 11 13 13 12 12 13 13 12 13 10 10 8 10 10 11 12 13 13
14 15 15 14 14 14 14 14 14 14 14 13 13 13 14 15 15 14 13 12 13 14 13 14 14 13 14 14 13 12 13 15 17 17 17 18 17 15 12 12 11 11 11 11 11 11 11 11 10 11 10 10 9 10 11 11 10 10 12 13 15 18 20 22 20 20 17 14 13 15 15 12 15 14 13 10 10 12 11 13 12 12 13 16 17
14 14 14 14 14 13 14 14 14 14 14 14 14 14 15 14 14 13 13 14 14 14 14 14 14 14 14 13 12 13 13 17 16 17 17 18 16 13 10 10 11 12 12 12 12 12 11 11 12 12 12 10 9 11 11 11 11 11 12 13 15 15 15 15 14 13 14 14 16 19 18 15 16 16 13 10 14 14 14 15 15 15 14 11 8
14 13 13 13 14 14 14 14 15 14 14 14 14 15 14 15 15 13 13 13 12 12 12 13 14 14 14 13 13 14 13 17 17 17 17 17 16 10 10 11 12 13 13 12 12 11 11 12 12 12 12 11 12 16 15 11 11 12 13 14 15 14 14 14 15 16 16 15 16 19 19 18 18 18 15 13 12 12 11 11 8 8 10 11 13
13 13 14 14 14 15 15 15 15 15 15 14 15 15 15 14 14 12 13 13 13 13 14 13 13 13 14 14 15 14 13 15 17 17 17 17 13 9 10 10 12 13 14 13 12 12 12 12 12 12 12 11 13 16 17 16 12 13 13 14 15 15 15 8 15 21 21 22 26 27 27 26 24 22 20 20 16 13 9 10 14 11 12 14 14
13 13 14 14 15 15 15 15 15 15 14 15 15 15 15 14 14 12 14 14 14 14 13 12 12 13 14 15 14 13 13 14 16 16 17 18 16 12 10 11 13 13 13 12 11 11 14 18 16 13 12 12 14 17 17 15 13 13 13 15 18 17 15 10 8 11 20 24 27 27 25 24 24 24 24 21 19 15 14 17 19 10 14 14 15
12 13 14 14 15 15 15 15 15 15 15 15 15 15 15 15 14 13 13 13 13 12 11 11 12 12 13 14 15 15 13 12 16 17 18 18 16 10 10 10 12 13 11 11 11 11 12 13 17 16 15 15 17 16 18 16 13 13 13 14 18 19 17 11 10 12 9 10 13 13 16 20 19 17 19 24 26 20 17 19 15 10 13 15 14
12 12 12 13 13 13 13 14 14 14 15 15 14 14 14 12 12 12 12 11 11 11 11 11 13 12 11 12 12 13 13 11 12 18 18 19 20 13 9 10 12 12 11 11 10 11 11 11 12 15 19 19 19 18 16 19 15 13 11 12 16 20 17 8 10 10 11 12 10 9 14 13 13 14 15 18 19 19 19 18 16 14 15 15 14
4 6 8 10 11 12 12 13 15 14 14 15 15 14 12 12 12 12 12 11 11 10 11 11 11 12 11 11 11 11 11 11 11 17 18 20 20 18 10 12 12 10 10 11 10 11 10 9 8 12 18 19 19 20 19 18 17 13 11 9 15 21 15 9 11 8 11 11 8 9 10 8 10 11 12 14 15 14 14 16 18 19 17 17 15
2 4 7 9 10 11 12 12 13 13 13 12 11 12 11 12 11 12 10 10 11 12 10 10 10 10 9 9 9 10 10 14 10 14 19 20 20 22 13 13 13 11 11 11 9 9 10 9 9 12 17 17 17 17 17 15 15 9 7 12 22 27 19 14 11 9 11 11 9 10 10 10 10 10 11 13 14 14 14 16 18 19 18 17 17
2 4 6 8 10 12 12 14 13 10 11 12 13 13 11 11 11 10 10 10 11 11 11 10 9 9 8 7 7 8 8 9 15 12 17 20 21 21 23 17 16 13 12 11 10 10 10 9 9 10 9 10 10 11 12 11 6 11 11 18 22 27 21 13 11 10 13 14 11 12 12 11 11 12 13 13 13 14 14 15 16 16 16 18 18
0 2 5 6 8 9 11 13 13 12 13 12 12 12 10 10 10 9 10 10 9 10 9 8 8 8 9 8 7 6 7 7 11 16 14 19 20 22 22 22 18 12 12 11 9 9 7 6 2 4 4 5 5 6 7 5 7 6 13 15 20 22 15 12 11 11 12 13 12 12 13 12 11 13 14 14 14 14 15 14 14 15 15 16 19
3 3 1 5 6 7 8 9 11 11 11 12 11 10 10 8 9 8 8 8 9 9 8 8 9 9 8 8 7 6 6 7 7 11 16 16 19 19 20 20 21 19 12 10 7 5 1 5 6 6 5 8 8 7 4 4 6 7 12 15 16 10 11 10 10 9 10 12 12 13 14 13 13 14 14 13 13 13 13 12 12 12 13 15 16
4 4 3 2 4 5 7 8 9 10 10 9 11 10 11 10 10 8 9 9 9 9 8 8 8 7 8 7 6 7 6 6 6 3 4 8 9 13 16 15 16 15 11 9 10 10 10 10 10 10 8 5 4 4 5 5 6 5 10 11 8 9 8 8 8 9 11 11 12 14 14 12 11 12 13 12 11 13 13 13 12 12 11 13 13
3 4 5 2 3 4 6 7 7 7 7 7 7 7 7 8 8 8 8 8 7 7 7 7 7 7 7 6 6 6 7 6 5 3 3 5 6 6 7 9 10 6 7 8 9 7 7 5 4 3 3 5 4 5 4 5 3 3 3 6 6 7 7 7 9 9 10 10 12 12 12 12 11 11 11 11 13 13 12 13 13 14 11 12 13
2 3 3 1 3 4 5 7 7 5 4 4 5 5 5 6 7 7 8 8 8 7 7 7 7 8 7 7 7 6 6 4 4 6 5 5 4 3 4 5 5 6 6 4 2 1 1 2 2 0 1 2 2 2 2 2 2 3 2 1 4 6 8 11 11 9 9 10 11 11 12 12 13 13 12 13 14 14 12 12 13 14 13 12 13
3 3 3 0 2 2 4 4 6 7 8 10 9 7 4 2 1 4 4 2 3 6 7 6 7 7 7 7 8 6 3 6 6 3 4 3 5 6 5 4 3 3 3 4 3 3 3 3 4 4 5 5 5 4 4 4 3 2 2 3 3 3 3 3 5 6 8 9 10 11 12 12 13 12 12 13 14 13 11 12 14 14 14 12 16
4 5 4 3 1 3 5 6 7 7 8 7 9 9 12 12 8 3 2 4 3 3 2 5 5 5 5 3 1 4 5 3 10 12 10 10 10 10 9 9 7 6 5 5 4 5 4 5 5 4 4 4 4 5 5 5 6 6 5 4 4 4 4 5 6 7 8 9 9 10 11 11 12 12 12 13 13 12 12 12 14 12 15 16 17
5 5 5 4 2 3 5 7 7 7 7 7 7 9 7 11 16 15 10 7 8 10 11 9 7 5 8 6 6 10 12 14 13 12 12 11 11 11 11 10 10 7 4 5 6 5 5 5 3 2 2 3 4 5 5 5 5 5 6 6 5 5 5 5 6 6 7 8 9 9 10 11 12 12 12 13 13 13 12 11 11 12 13 14 16
5 5 5 5 4 4 6 7 7 7 6 6 7 8 8 9 10 13 14 14 15 14 13 12 12 14 13 12 10 7 9 11 14 13 13 13 12 12 12 11 9 7 3 6 7 5 3 3 3 4 4 4 3 3 4 4 4 5 5 6 7 6 7 7 8 8 9 9 9 9 10 10 10 11 11 11 12 13 13 13 12 12 12 11 12
6 6 5 5 4 5 7 7 7 7 8 8 7 7 8 9 10 8 9 13 17 17 15 14 15 14 15 15 14 13 12 10 14 14 14 13 13 12 11 10 10 7 8 8 6 5 3 3 3 3 3 3 4 4 4 4 4 4 4 5 6 7 7 8 9 9 8 9 10 10 9 10 10 11 11 11 12 13 12 13 13 13 14 15 14
6 6 6 6 5 4 5 6 7 6 5 6 6 6 5 7 8 10 10 7 10 13 16 16 15 18 17 17 16 14 13 13 13 13 12 11 10 9 11 8 10 10 9 7 6 5 3 3 3 2 2 2 3 4 4 4 3 3 4 4 5 6 7 7 7 8 8 9 9 9 9 9 9 10 11 11 12 12 13 13 12 13 13 13 13
6 9 14 9 6 5 4 4 5 6 6 6 6 6 7 6 7 7 8 9 9 8 6 7 11 12 11 10 12 13 11 11 12 11 11 8 9 9 7 7 8 7 7 5 5 5 3 1 0 1 3 3 4 3 3 3 3 3 4 5 5 5 6 6 6 7 7 8 9 10 10 11 11 10 11 12 11 11 11 12 11 11 11 10 11
6 6 6 7 6 6 6 6 5 5 6 6 6 6 6 6 7 8 8 9 9 9 7 6 4 6 14 13 13 12 11 10 10 10 9 7 3 2 6 7 7 6 5 3 4 2 1 2 2 3 3 2 2 2 3 4 4 4 4 5 6 6 6 6 6 7 7 7 7 8 9 9 9 10 11 11 12 11 11 11 11 10 10 11 11
6 6 6 6 6 5 6 7 7 7 7 6 7 7 7 7 7 7 8 9 9 8 7 6 6 7 7 6 9 10 10 9 9 11 9 6 4 5 6 6 6 5 5 3 1 1 1 0 0 0 2 4 4 4 4 4 5 5 4 4 4 5 5 5 6 6 7 8 8 8 8 8 9 8 8 8 9 9 9 10 10 10 9 9 8
7 6 6 6 7 8 6 7 9 10 9 9 8 7 8 8 7 7 8 9 8 8 8 7 6 6 5 5 5 4 5 5 8 9 7 6 5 5 5 5 4 6 4 1 1 1 2 2 3 4 4 3 4 5 5 5 5 5 5 5 4 4 6 5 5 5 5 5 6 7 7 7 7 7 7 7 7 8 8 8 7 7 7 8 6
8 11 13 13 9 7 8 8 7 7 9 9 8 7 9 9 8 8 8 8 8 9 7 7 7 6 5 3 4 2 5 7 6 6 6 5 5 5 5 5 5 3 3 3 3 3 3 4 3 3 3 4 5 5 5 5 5 5 5 5 5 4 5 5 6 5 5 5 6 6 6 6 6 6 6 6 8 8 8 8 8 7 7 8 8
8 7 9 12 9 9 8 7 7 8 7 8 7 7 8 9 8 8 8 8 8 7 7 8 8 7 5 3 3 6 9 8 7 6 7 7 7 7 6 6 6 6 6 6 6 5 5 5 4 4 4 5 5 5 5 5 5 4 4 4 4 5 5 4 5 5 6 6 5 6 6 6 6 6 6 6 5 6 6 7 7 7 7 8 9
7 7 8 8 9 9 8 9 8 7 7 8 8 7 8 8 8 9 9 9 9 9 9 8 8 7 8 9 11 11 9 7 7 7 6 7 7 7 7 7 6 7 6 6 6 6 6 6 6 6 6 6 5 5 4 4 4 3 3 3 3 4 4 4 4 5 6 6 5 6 6 6 6 6 6 7 6 5 5 5 6 7 8 9 10
8 7 8 7 8 9 9 9 8 9 8 9 9 8 8 8 8 8 9 7 7 8 8 7 7 8 11 16 14 14 10 7 7 7 7 7 7 7 7 7 7 7 7 7 8 8 8 8 8 8 8 8 7 6 6 5 5 5 4 4 4 5 5 5 5 5 5 5 6 6 6 6 6 5 6 6 7 7 7 6 6 7 8 9 9
9 8 7 7 8 8 8 7 7 8 8 9 8 8 9 9 8 8 8 7 7 7 6 7 7 7 9 11 12 12 9 8 7 7 7 7 6 6 7 7 6 6 6 5 6 6 6 5 5 7 8 9 9 9 8 8 7 6 6 5 5 5 5 5 6 6 5 5 6 7 6 6 6 5 6 6 6 6 6 7 6 6 7 8 8
9 9 9 8 8 8 8 7 8 8 8 10 11 8 8 8 8 8 8 8 7 7 7 6 6 6 7 8 9 9 8 7 7 7 7 6 6 6 7 7 7 6 7 7 7 7 7 6 6 7 7 7 7 8 8 9 9 8 7 7 7 7 5 5 5 5 5 5 5 6 6 5 5 5 5 6 6 6 6 7 6 6 6 6 6
9 9 9 9 8 8 8 7 7 8 8 8 8 8 8 7 7 7 7 7 7 8 7 7 6 6 7 7 8 8 8 8 7 7 7 7 7 7 7 7 7 7 8 8 9 9 8 8 8 7 7 7 8 8 8 8 8 8 8 8 8 8 8 8 8 7 6 4 4 4 4 4 5 5 5 4 4 4 5 4 4 5 6 5 5
9 9 9 9 8 8 8 7 7 7 6 7 7 7 7 8 8 8 8 8 8 7 7 7 7 7 7 7 8 8 7 7 7 7 7 6 7 7 7 7 7 8 8 8 8 9 8 8 8 8 8 8 8 9 8 8 8 8 7 6 6 7 7 7 8 9 8 6 5 4 3 2 3 3 4 3 2 2 2 2 3 3 3 3 4
10 9 9 8 8 8 8 7 7 7 7 8 8 8 7 8 9 9 9 9 8 7 7 7 7 7 7 8 8 7 7 8 8 8 8 8 8 7 7 8 8 8 9 9 9 8 8 8 8 8 8 8 8 7 8 9 8 8 7 7 6 6 6 7 7 7 8 8 6 4 4 4 4 3 2 2 2 2 2 2 1 2 2 2 3
10 10 9 9 8 8 8 7 8 9 8 8 8 8 8 8 7 8 7 7 8 8 7 7 7 7 7 6 7 7 7 7 8 8 8 8 8 7 8 9 9 8 8 8 8 9 8 8 8 8 9 9 9 9 8 10 9 9 9 8 7 10 13 14 7 7 6 7 7 5 5 4 3 3 4 2 2 1 1 1 0 0 1 2 2
9 9 9 9 8 8 8 8 8 7 7 8 8 9 8 9 8 8 8 8 8 8 7 7 7 7 7 7 7 7 7 7 7 7 8 7 7 7 7 8 8 8 7 7 7 8 8 9 9 8 8 9 9 8 7 9 10 10 11 10 13 22 20 18 11 7 8 6 6 7 5 4 4 4 3 4 5 3 3 3 2 1 1 1 2
10 10 10 9 9 8 8 8 9 8 8 8 9 9 9 8 8 8 8 8 8 8 7 8 8 8 7 7 8 7 7 7 7 7 7 6 6 6 6 6 7 7 7 7 6 7 7 8 8 9 8 9 9 8 8 8 8 9 9 12 20 20 19 19 17 14 10 5 5 6 7 6 5 5 5 5 4 5 5 5 4 3 3 4 4
11 11 11 10 9 9 9 10 10 9 9 9 9 8 9 8 8 8 8 8 8 8 8 7 7 8 8 7 7 7 7 7 7 7 7 7 6 6 7 7 7 7 7 7 7 7 8 8 8 8 8 9 10 9 9 9 9 10 14 18 19 20 19 17 13 15 16 9 5 5 5 6 6 7 6 5 4 5 7 7 6 5 5 5 4
Wind_Direction
190 193 190 195 193 193 195 195 198 197 197 197 200 203 204 206 208 209 185 197 193 196 199 200 201 205 205 206 208 211 213 213 210 209 211 218 220 219 214 206 217 226 220 222 216 213 215 223 228 227 210 218 231 234 226 216 201 212 204 198 216 204 188 202 226 260 277 227 235 243 248 201 236 212 223 224 221 219 218 223 219 217 219 224 229
191 192 192 194 194 195 196 196 197 196 198 199 203 203 202 202 203 192 196 200 189 200 204 204 204 204 207 209 209 212 215 214 208 205 212 218 223 217 217 211 219 225 216 226 218 217 215 222 233 230 207 219 226 231 232 226 211 215 220 208 220 215 196 197 233 241 267 275 263 254 270 195 238 193 210 218 230 216 221 224 218 213 219 220 225
191 189 190 191 195 195 194 196 196 198 199 201 205 205 204 204 195 197 204 201 198 202 206 207 206 204 209 211 210 212 214 216 212 208 213 215 219 220 216 214 216 220 220 225 222 214 217 222 230 225 209 219 228 231 224 228 219 220 230 212 226 225 202 205 213 241 252 265 220 250 231 222 215 233 218 225 225 210 220 224 220 218 220 218 223
189 188 190 194 194 193 194 195 196 198 201 203 205 207 205 204 197 204 207 204 204 208 207 208 207 207 212 215 212 213 213 214 214 214 215 214 218 220 218 217 218 220 222 224 222 214 219 226 231 220 212 220 230 229 225 217 215 220 228 224 222 231 215 202 216 228 241 254 261 215 229 210 248 254 249 238 230 223 222 237 235 230 226 223 225
187 188 190 193 193 195 197 195 196 199 202 204 208 207 207 204 201 206 205 208 210 207 209 206 208 209 214 216 215 214 214 212 214 217 217 217 218 220 219 218 220 222 223 225 220 218 222 225 232 218 210 222 232 230 224 219 219 214 223 226 222 226 218 209 219 219 238 243 258 244 224 229 243 248 218 228 250 243 245 235 229 230 234 232 232
188 188 191 192 193 196 198 197 198 198 201 205 208 208 207 206 205 207 204 208 209 209 209 207 209 213 216 218 217 218 215 213 214 216 217 217 220 222 224 223 223 224 225 225 223 221 224 228 229 219 215 219 230 229 225 226 221 220 223 227 227 223 224 222 213 218 224 243 242 262 234 229 252 242 208 200 222 244 251 252 255 239 231 244 237
187 188 190 193 194 198 197 198 197 198 200 205 207 207 208 208 208 209 204 207 206 209 209 210 214 216 220 219 220 219 217 216 218 218 217 216 219 222 225 227 227 226 226 225 224 224 226 228 227 222 223 225 229 229 225 226 222 225 222 224 224 222 229 229 219 221 225 238 247 241 252 237 214 249 236 198 215 218 229 244 253 235 219 226 244
187 189 190 194 196 198 199 197 198 199 200 202 205 208 209 210 212 212 206 207 208 209 210 211 216 217 221 222 224 222 219 218 220 220 217 216 217 221 223 226 228 230 230 227 224 226 227 228 228 226 226 228 228 231 219 227 220 231 229 223 221 222 231 233 228 228 235 239 243 253 241 245 241 249 316 139 230 259 227 221 239 241 229 223 228
188 190 191 194 197 197 197 197 198 199 199 200 204 207 208 211 213 213 211 212 211 212 213 215 216 220 224 224 226 223 223 222 220 218 217 218 218 222 222 224 226 230 231 231 228 228 229 230 230 230 228 230 229 228 224 218 215 228 233 215 224 223 232 234 229 226 237 242 251 250 257 247 236 234 238 223 218 233 216 195 239 246 239 237 245
189 191 193 195 196 196 196 196 196 198 199 201 203 204 207 209 211 213 213 214 214 213 215 217 219 222 225 225 225 224 225 227 223 217 214 215 217 222 223 225 225 227 230 232 233 230 232 232 235 231 228 228 228 228 228 224 221 224 230 210 222 223 228 235 231 227 232 240 242 244 249 250 239 223 236 236 234 246 237 210 228 243 242 253 266
189 190 193 195 196 194 193 197 196 199 202 202 201 201 204 206 210 213 214 214 215 214 214 218 220 223 226 227 226 225 227 228 225 217 216 216 215 219 221 226 224 225 226 229 232 233 234 234 238 236 231 231 231 229 229 227 227 230 234 230 220 216 226 230 234 225 230 237 242 238 242 251 247 233 232 243 234 229 232 230 237 241 228 236 251
188 189 194 195 193 192 194 195 197 201 200 203 201 200 201 204 208 211 212 214 215 214 216 218 222 224 227 229 231 230 230 230 225 221 216 215 214 219 223 224 224 224 226 228 233 235 236 236 235 235 234 231 229 230 230 231 231 232 234 237 237 228 222 223 229 229 225 237 241 236 238 242 248 238 240 235 240 235 231 228 225 227 234 233 242
184 188 194 195 194 192 193 194 198 200 201 202 202 200 201 204 208 209 212 213 213 215 218 218 222 223 225 228 232 232 235 231 225 222 219 216 215 217 228 226 224 227 225 227 231 233 235 237 239 234 237 229 228 230 230 230 228 232 236 241 243 238 235 234 230 230 228 233 240 246 231 240 244 242 230 233 231 240 227 229 228 229 232 236 240
185 192 196 195 193 191 193 195 198 201 199 200 201 201 202 207 207 208 210 209 213 217 217 220 222 223 224 227 231 234 233 234 223 222 221 219 216 210 228 230 232 232 229 229 230 231 231 233 235 239 235 228 224 225 229 232 233 229 234 239 243 245 239 238 238 237 239 239 241 246 241 222 240 242 235 224 225 232 228 234 226 233 234 234 233
188 194 195 195 193 193 193 196 199 200 200 200 201 203 205 208 207 207 207 209 212 214 215 219 222 223 225 225 229 233 234 230 223 219 219 217 214 205 224 229 236 238 237 235 234 234 232 231 233 238 237 229 221 219 223 226 229 236 238 238 241 244 239 235 230 228 230 234 242 247 249 237 239 245 240 222 225 230 227 232 227 229 239 254 271
191 193 195 195 195 194 193 196 200 200 199 200 201 205 206 207 208 206 208 213 215 215 217 219 222 222 223 223 226 233 234 226 220 217 214 214 206 205 216 225 232 238 240 239 237 236 235 233 235 238 237 234 223 215 217 220 226 234 240 246 250 247 242 231 228 228 226 228 234 241 245 243 238 241 238 230 231 234 240 246 248 241 243 245 248
193 192 196 196 196 196 195 196 200 200 199 199 202 205 207 209 210 205 208 212 213 213 216 216 220 221 222 221 224 230 233 226 217 213 210 205 195 209 214 225 233 237 239 238 239 238 237 234 234 239 237 236 225 214 215 211 227 231 239 248 250 252 252 231 216 225 226 227 233 237 241 244 245 247 247 238 234 230 229 239 239 224 233 242 248
194 193 198 198 197 197 196 197 199 200 199 200 202 206 208 209 209 203 206 209 212 214 214 217 218 219 221 223 221 225 231 225 210 209 205 198 193 202 211 219 232 235 240 239 239 241 240 237 236 238 240 239 225 217 211 203 222 229 236 248 255 255 255 241 237 230 222 227 232 236 242 247 248 250 251 247 241 230 224 233 239 216 234 237 246
197 195 200 200 199 197 197 198 200 200 200 203 203 205 207 207 208 203 208 210 215 213 213 217 220 222 223 225 222 222 230 225 208 207 203 199 197 207 207 217 230 235 236 241 238 241 245 242 237 236 241 241 232 222 211 200 218 222 226 243 255 259 256 245 241 249 239 232 243 244 251 249 250 248 249 246 241 233 232 240 246 226 236 238 241
203 200 200 200 200 199 198 198 201 200 202 205 205 207 208 208 207 205 209 210 213 211 212 215 219 222 222 223 223 221 225 227 210 204 201 201 198 202 208 216 229 231 231 235 240 239 241 244 239 232 235 240 240 233 220 204 214 221 215 233 252 259 260 256 247 252 260 253 250 227 237 240 240 239 243 246 244 232 234 238 242 240 238 239 233
218 206 198 196 199 201 201 200 201 203 203 204 204 207 205 206 206 204 207 207 211 212 213 215 219 223 220 220 223 221 219 222 216 197 202 201 202 200 213 219 227 228 231 233 234 240 241 239 241 230 230 233 234 235 232 219 216 222 215 208 247 256 273 283 264 270 272 272 272 263 257 245 240 240 242 245 245 240 234 232 235 234 234 235 232
209 207 204 199 198 198 200 203 204 204 204 203 204 208 208 206 206 204 205 205 208 213 214 216 220 223 222 221 222 223 217 211 216 200 201 203 202 202 212 223 219 224 233 237 236 242 242 238 241 232 231 234 235 239 239 235 227 229 204 162 245 260 264 262 278 278 269 268 266 266 264 260 258 250 245 245 244 241 236 233 231 232 233 234 230
206 208 206 203 199 196 198 199 201 204 203 200 202 206 204 203 205 201 201 204 206 211 214 213 217 222 223 220 218 217 214 211 209 204 203 204 205 205 213 220 218 220 230 237 232 238 239 239 244 249 254 259 258 257 256 246 215 220 201 174 211 251 260 264 266 268 271 269 263 263 262 259 257 254 253 253 250 245 241 237 237 232 231 234 233
123 175 200 210 206 205 200 199 199 200 201 199 201 203 201 201 201 199 199 201 203 209 213 212 213 218 221 221 214 213 209 210 211 209 202 204 208 208 214 222 224 221 225 234 234 237 245 247 233 67 46 8 322 292 278 263 238 224 171 191 195 224 246 255 253 250 257 267 268 266 262 255 254 255 253 251 252 253 250 247 245 239 236 235 234
359 6 206 205 208 208 199 199 201 199 197 194 196 200 201 189 195 197 193 200 202 206 209 205 209 213 216 218 213 210 210 210 216 213 209 203 208 211 216 220 228 230 237 243 243 250 58 58 28 3 345 314 302 295 292 260 239 208 183 187 199 219 229 238 244 242 247 254 257 258 261 259 254 256 262 264 267 268 266 265 256 250 244 243 242
356 343 328 228 214 199 196 199 197 196 192 193 196 196 193 189 193 191 191 199 200 203 204 199 207 205 210 211 204 209 210 211 214 170 186 206 212 222 223 227 234 236 241 269 285 298 307 316 309 300 288 275 272 284 282 278 270 227 192 187 199 214 223 230 242 243 247 254 259 262 265 271 267 265 267 270 269 264 265 265 262 258 250 252 253
353 342 330 275 206 194 195 192 189 187 184 183 186 185 184 188 193 189 191 196 197 200 197 191 197 196 202 199 201 204 210 214 186 160 165 172 203 206 206 229 232 228 227 237 252 267 279 280 297 324 305 287 259 247 257 281 291 264 192 179 206 216 223 230 237 246 251 256 261 266 273 275 280 278 272 272 269 267 262 264 264 263 258 254 252
9 334 319 277 193 191 191 186 165 141 121 122 139 153 167 177 183 186 190 195 190 195 187 191 192 194 199 192 199 202 216 191 178 185 177 177 162 170 191 203 194 201 222 231 202 226 152 81 63 37 42 44 51 51 48 15 351 354 331 214 205 220 234 240 248 254 263 266 272 276 279 279 278 274 274 270 268 269 264 262 261 264 257 258 258
24 12 352 24 176 177 165 140 124 113 92 72 56 40 9 360 128 122 47 41 207 195 197 199 199 196 194 190 189 208 185 203 217 104 104 120 161 161 172 170 147 134 106 120 116 99 89 90 56 36 31 26 17 20 13 12 17 6 2 347 334 319 299 283 266 259 261 267 265 268 270 274 273 275 272 269 267 268 265 262 258 256 261 252 256
31 15 360 4 64 127 123 112 112 118 118 109 100 76 59 63 35 48 67 8 62 80 124 202 202 165 110 52 2 203 228 182 109 100 98 91 82 86 89 88 97 116 137 134 113 84 58 70 52 49 34 29 18 5 1 360 353 347 341 325 298 276 264 259 261 264 266 267 274 278 281 285 286 285 285 280 281 275 271 263 266 259 256 251 249
30 17 7 359 4 107 113 111 112 112 114 119 113 110 97 52 47 46 50 48 57 67 76 66 78 121 150 130 65 54 92 106 104 105 99 92 91 88 86 89 92 105 128 104 51 68 70 73 50 46 40 30 23 360 353 349 338 326 316 307 294 291 285 284 283 275 272 271 266 264 265 267 270 272 274 279 283 286 284 273 267 268 266 267 263
38 12 4 348 21 86 103 111 117 118 113 119 122 126 113 100 58 39 47 61 58 58 58 66 74 79 83 109 118 64 59 86 100 92 90 89 87 87 81 78 79 84 81 88 91 81 80 96 60 31 17 16 353 353 337 318 298 293 303 314 320 323 320 314 305 300 293 286 281 276 272 266 266 270 269 268 271 273 274 276 274 274 274 272 270
42 29 9 7 20 89 115 122 131 130 136 135 138 136 130 125 113 96 51 64 72 67 57 59 66 73 84 81 87 108 120 107 94 95 95 98 95 94 91 73 62 64 92 72 97 82 51 60 56 12 17 356 327 317 288 270 276 286 299 312 315 315 310 305 302 297 293 290 289 286 284 280 279 277 272 273 271 272 269 266 264 260 262 266 266
50 50 38 20 22 52 108 134 133 133 130 129 132 125 116 120 127 126 117 103 67 56 53 50 63 77 72 85 96 101 102 102 100 100 98 92 92 86 83 77 69 52 77 97 81 87 82 49 22 5 340 285 266 259 256 260 271 289 296 295 297 299 299 301 304 304 307 306 304 301 297 295 294 293 290 282 277 276 278 276 277 276 273 268 271
44 49 53 51 37 30 43 91 120 126 125 123 119 114 115 119 119 115 114 109 98 92 85 53 35 50 85 87 90 91 93 95 100 105 103 103 104 119 109 83 69 51 48 61 87 91 92 87 317 257 248 243 246 249 276 304 310 305 310 313 310 306 305 309 310 313 312 315 317 319 315 311 308 301 298 298 297 293 289 287 282 277 275 273 268
51 50 40 44 51 56 52 55 65 79 100 101 102 102 106 109 104 106 101 97 103 105 87 57 65 58 73 64 67 70 73 75 82 82 84 90 72 360 86 81 78 73 82 73 90 108 142 179 209 226 231 250 280 318 334 318 319 319 322 322 317 314 316 324 326 324 322 320 319 317 319 321 317 314 309 303 300 298 299 299 299 297 291 283 274
55 54 51 45 43 52 73 81 76 83 81 75 83 90 88 90 95 96 93 98 100 97 95 108 102 82 67 67 78 73 72 84 86 87 82 86 28 52 90 99 102 94 80 94 135 169 178 192 211 308 360 360 350 339 329 335 335 335 325 316 299 299 311 320 324 324 327 329 328 328 325 320 316 314 310 305 308 306 305 304 300 297 296 296 295
63 58 57 53 64 63 57 74 93 81 70 74 66 71 80 66 69 83 95 98 94 91 84 73 66 68 62 28 41 82 81 66 73 65 57 50 41 60 84 90 91 92 94 95 128 100 40 7 18 24 11 348 347 339 346 347 348 333 330 312 300 299 311 317 325 328 328 326 327 327 323 321 320 323 327 335 341 342 344 346 347 346 352 359 21
75 67 69 68 62 65 79 79 53 80 98 92 89 94 98 105 98 93 88 88 83 79 76 67 60 52 34 7 59 77 71 44 48 52 48 52 49 45 47 51 59 57 50 34 18 25 17 23 12 17 9 359 355 351 348 343 339 331 318 311 313 323 340 349 344 341 340 340 332 328 321 319 324 335 351 5 6 3 3 5 10 15 26 40 51
81 74 63 72 72 64 68 72 92 87 82 92 95 93 91 91 94 92 92 91 87 79 71 63 53 39 7 18 45 82 77 73 66 63 59 53 49 46 50 48 48 49 39 28 22 12 12 359 1 8 11 9 357 348 347 337 331 315 309 316 324 333 337 340 342 340 340 335 335 325 325 325 334 338 359 18 16 17 19 22 21 30 40 55 54
81 77 74 63 76 78 68 73 72 70 82 83 79 76 82 86 85 86 81 74 72 75 69 62 56 46 34 43 54 76 84 78 69 63 56 56 49 46 44 40 36 35 36 29 24 18 18 17 14 15 9 6 355 353 338 331 320 317 318 322 336 336 334 337 342 341 337 337 330 324 319 327 340 356 3 354 354 13 32 41 44 50 60 63 67
79 75 68 67 66 76 80 70 64 69 70 78 78 76 73 73 78 78 78 73 74 71 71 63 56 56 40 43 48 62 73 63 61 59 52 46 44 40 39 43 37 34 31 28 22 21 19 16 14 12 11 5 3 355 346 343 334 329 331 339 345 344 345 336 338 337 336 331 325 322 321 330 344 3 10 8 9 3 8 24 46 56 58 62 64
83 76 73 68 68 70 77 75 74 75 70 69 68 70 73 75 70 72 75 71 71 67 65 64 54 50 47 35 46 56 63 56 52 49 50 47 45 44 41 38 33 32 26 23 25 20 22 16 15 15 4 0 356 348 349 351 345 342 344 345 342 340 339 333 334 336 335 331 325 326 328 335 352 2 11 14 9 13 14 12 16 38 59 73 80
89 88 83 75 76 76 68 71 74 73 75 82 80 73 70 72 69 69 70 68 65 65 64 58 57 52 48 37 42 51 52 48 44 40 39 38 38 44 40 34 28 26 22 22 19 16 13 15 6 3 3 1 357 346 351 357 353 355 352 351 347 342 338 338 328 321 322 318 320 324 332 337 350 2 10 12 12 17 13 14 16 18 23 32 44
90 91 89 87 80 78 77 72 76 77 77 76 71 70 66 64 66 68 65 68 66 65 63 60 53 52 49 44 44 51 50 53 49 44 38 37 42 40 37 34 31 26 26 23 18 15 16 14 11 0 354 357 356 354 355 0 6 5 359 354 352 347 342 335 325 310 297 297 306 316 326 339 351 356 8 6 21 30 25 19 19 23 31 29 38
90 88 85 88 85 83 81 76 77 75 70 73 74 71 68 70 71 74 73 70 69 67 64 60 57 57 57 56 54 55 51 53 52 50 46 43 46 45 37 38 34 31 33 27 20 17 16 16 9 7 359 354 352 356 356 358 1 1 360 359 348 335 323 318 316 315 303 296 292 286 284 319 343 344 4 25 10 38 44 20 43 55 81 78 73
94 91 90 85 85 86 84 83 82 79 74 76 74 76 71 74 78 77 76 78 76 69 67 64 62 60 59 56 55 55 55 54 53 49 43 39 39 40 39 35 37 36 34 29 23 17 13 15 12 8 4 0 354 351 358 360 356 352 351 345 339 330 326 321 308 299 296 293 275 260 278 299 307 315 341 6 12 9 11 1 18 82 76 87 93
91 91 89 88 88 86 84 81 80 78 75 75 74 75 75 75 72 73 72 72 72 72 68 64 66 63 61 57 56 57 55 56 53 50 43 38 30 31 36 38 37 37 33 29 24 19 17 12 9 6 7 4 3 357 357 357 356 349 349 344 342 339 327 322 302 299 295 302 283 262 252 262 263 281 295 300 284 272 286 279 303 5 78 91 85
87 86 85 83 82 82 82 80 75 74 74 74 75 73 73 73 69 67 69 71 69 62 63 64 62 64 63 61 57 56 54 53 51 48 45 39 34 29 34 38 39 36 37 34 30 27 25 22 16 8 7 6 3 354 350 357 358 354 347 343 339 334 330 326 315 309 308 289 286 275 254 244 256 257 253 265 278 263 248 245 229 205 172 147 137
88 87 83 78 73 71 74 78 81 81 73 70 73 73 72 71 72 72 73 69 66 63 58 61 62 60 63 63 59 56 54 52 50 47 45 43 37 33 32 34 38 36 38 33 29 26 25 22 19 17 10 9 360 357 354 355 351 348 351 342 339 337 335 331 325 325 330 322 303 277 264 252 257 258 255 246 254 271 269 257 237 213 201 199 199
89 88 85 81 80 78 79 82 81 80 78 75 79 80 78 75 75 73 71 70 69 67 63 62 62 64 61 62 61 61 58 55 50 48 46 42 39 32 33 33 32 30 31 30 26 25 21 20 16 16 12 9 1 357 355 352 354 348 345 346 348 346 345 342 336 325 322 318 289 288 272 256 242 247 256 263 244 248 255 266 263 244 229 217 202